Cleveland, OH

12:42 PM EST on February 08, 2016 (GMT -0500)
Cleveland-Hopkins International

Weather History for KCLE - November, 2011

Change the Weather History Date:

Friday, November 11, 2011

  Actual Average Record
Temperature  
Mean Temperature 38 °F 46 °F  
Max Temperature 43 °F 53 °F 73 °F (1915)
Min Temperature 33 °F 39 °F 21 °F (1957)
Degree Days  
Heating Degree Days 27 19  
Month to date heating degree days 177 194  
Since 1 July heating degree days 596 654  
Cooling Degree Days 0 0  
Month to date cooling degree days 0 0  
Year to date cooling degree days 995 816  
Moisture  
Dew Point 29 °F    
Average Humidity 72    
Maximum Humidity 89    
Minimum Humidity 54    
Precipitation  
Precipitation 0.09 in 0.12 in 1.56 in (1983)
Month to date precipitation 0.19 1.29  
Year to date precipitation 56.00 33.71  
Snow  
Snow 0.60 in 0.10 in - ()
Month to date snowfall 0.6 0.9  
Since 1 July snowfall 0.6 1.1  
Since 1 September snowfall 0.6 1.1  
Snow Depth 0.00 in    
Sea Level Pressure  
Sea Level Pressure 29.95 in    
Wind  
Wind Speed 13 mph (WSW)    
Max Wind Speed 22 mph    
Max Gust Speed 28 mph    
Visibility 7 miles    
Events Fog , Snow    
T = Trace of Precipitation, MM = Missing Value Source: NWS Daily Summary

Daily Weather History Graph

Daily Weather History Graph

Search for Another Location

Airport or City:

Trip Planner

Search our weather history database for the weather conditions in past years. The results will help you decide how hot, cold, wet, or windy it might be!

Date:

Astronomy

Nov. 11, 2011 Rise Set
Actual Time 7:10 AM EST 5:11 PM EST
Civil Twilight 6:41 AM EST 5:41 PM EST
Nautical Twilight 6:08 AM EST 6:14 PM EST
Astronomical Twilight 5:35 AM EST 6:46 PM EST
Moon 5:38 PM EST (11/11) 7:58 AM EST (11/11)
Length of Visible Light 10h 59m
Length of Day
10h 00m
Full, 99% of the Moon is Illuminated
Nov 11
Full
Nov 18
Last Quarter
Nov 25
New
Dec 2
First Quarter
Dec 10
Full

Hourly Weather History & Observations

Time (EST) Temp. Windchill Dew Point Humidity Pressure Visibility Wind Dir Wind Speed Gust Speed Precip Events Conditions
12:51 AM 33.1 °F 22.2 °F 27.0 °F 78% 29.91 in 10.0 mi WSW 17.3 mph - N/A   Scattered Clouds
1:51 AM 35.1 °F 24.8 °F 28.9 °F 78% 29.90 in 10.0 mi WSW 17.3 mph 26.5 mph 0.00 in Snow Light Snow
2:51 AM 35.1 °F 25.5 °F 28.9 °F 78% 29.91 in 10.0 mi WSW 15.0 mph - 0.00 in   Mostly Cloudy
3:06 AM 33.8 °F 24.3 °F 28.4 °F 81% 29.89 in 1.8 mi West 13.8 mph - 0.00 in Snow Light Snow
3:09 AM 33.8 °F 23.9 °F 30.2 °F 87% 29.89 in 1.2 mi West 15.0 mph 21.9 mph 0.00 in Snow Light Snow
3:16 AM 33.8 °F 24.8 °F 30.2 °F 87% 29.89 in 1.2 mi WSW 12.7 mph 21.9 mph 0.00 in Snow Light Snow
3:23 AM 33.8 °F 24.8 °F 30.2 °F 87% 29.88 in 1.2 mi WSW 12.7 mph - 0.01 in Snow Light Snow
3:29 AM 33.8 °F 24.3 °F 30.2 °F 87% 29.88 in 1.2 mi WSW 13.8 mph - 0.01 in Snow Light Snow
3:51 AM 33.1 °F 23.0 °F 30.9 °F 92% 29.91 in 0.5 mi WSW 15.0 mph - 0.01 in Fog , Snow Snow
4:01 AM 33.8 °F 25.3 °F 30.2 °F 87% 29.89 in 2.0 mi West 11.5 mph - N/A Snow Light Snow
4:06 AM 33.8 °F 25.3 °F 30.2 °F 87% 29.89 in 3.0 mi West 11.5 mph - 0.03 in Snow Light Snow
4:17 AM 33.8 °F 25.3 °F 30.2 °F 87% 29.89 in 5.0 mi WSW 11.5 mph - 0.03 in Snow Light Snow
4:23 AM 33.8 °F 24.8 °F 30.2 °F 87% 29.89 in 1.8 mi West 12.7 mph - 0.04 in Snow Light Snow
4:27 AM 33.8 °F 25.8 °F 30.2 °F 87% 29.90 in 1.2 mi WSW 10.4 mph - 0.04 in Snow Light Snow
4:33 AM 33.8 °F 25.3 °F 32.0 °F 93% 29.90 in 4.0 mi WSW 11.5 mph - 0.04 in Snow Light Snow
4:51 AM 34.0 °F 23.8 °F 30.9 °F 89% 29.91 in 6.0 mi WSW 16.1 mph - 0.04 in Snow Light Snow
5:51 AM 35.1 °F 26.9 °F 32.0 °F 89% 29.93 in 10.0 mi WSW 11.5 mph - 0.00 in   Overcast
6:51 AM 35.1 °F 27.4 °F 32.0 °F 89% 29.96 in 10.0 mi WSW 10.4 mph - N/A   Overcast
7:06 AM 35.6 °F 27.1 °F 30.2 °F 81% 29.95 in 10.0 mi WSW 12.7 mph - N/A   Mostly Cloudy
7:12 AM 35.6 °F 27.5 °F 30.2 °F 81% 29.95 in 10.0 mi WSW 11.5 mph - N/A   Mostly Cloudy
7:48 AM 35.6 °F 28.6 °F 32.0 °F 87% 29.96 in 10.0 mi WSW 9.2 mph - N/A   Mostly Cloudy
7:51 AM 35.1 °F 26.9 °F 32.0 °F 89% 29.98 in 10.0 mi WSW 11.5 mph - N/A   Overcast
8:41 AM 35.6 °F 27.1 °F 32.0 °F 87% 29.97 in 10.0 mi WSW 12.7 mph - N/A   Mostly Cloudy
8:51 AM 36.0 °F 27.5 °F 32.0 °F 86% 30.00 in 10.0 mi WSW 12.7 mph - N/A   Mostly Cloudy
9:51 AM 39.0 °F 31.8 °F 32.0 °F 76% 30.00 in 10.0 mi WSW 11.5 mph - N/A   Mostly Cloudy
10:51 AM 39.0 °F 30.3 °F 32.0 °F 76% 30.01 in 10.0 mi West 16.1 mph 25.3 mph N/A   Mostly Cloudy
11:51 AM 41.0 °F 32.2 °F 32.0 °F 70% 30.01 in 10.0 mi WSW 18.4 mph - N/A   Partly Cloudy
12:51 PM 39.0 °F 31.4 °F 32.0 °F 76% 30.01 in 10.0 mi West 12.7 mph - N/A   Overcast
1:51 PM 42.1 °F 34.2 °F 28.0 °F 58% 29.99 in 10.0 mi West 16.1 mph 24.2 mph N/A   Overcast
2:51 PM 42.1 °F 33.6 °F 28.9 °F 60% 29.99 in 10.0 mi WSW 18.4 mph 24.2 mph N/A   Overcast
3:51 PM 42.1 °F 34.9 °F 28.0 °F 58% 30.00 in 10.0 mi WSW 13.8 mph - N/A   Overcast
4:51 PM 41.0 °F 33.9 °F 26.1 °F 55% 30.00 in 10.0 mi WSW 12.7 mph - N/A   Overcast
5:51 PM 39.9 °F 33.9 °F 25.0 °F 55% 30.00 in 10.0 mi SW 9.2 mph - N/A   Overcast
6:51 PM 39.0 °F 33.4 °F 25.0 °F 57% 30.01 in 10.0 mi SSW 8.1 mph - N/A   Overcast
7:51 PM 37.9 °F 33.5 °F 25.0 °F 60% 30.01 in 10.0 mi South 5.8 mph - N/A   Overcast
8:51 PM 37.0 °F 31.0 °F 25.0 °F 62% 29.99 in 10.0 mi South 8.1 mph - N/A   Partly Cloudy
9:51 PM 37.0 °F 31.6 °F 25.0 °F 62% 29.99 in 10.0 mi South 6.9 mph - N/A   Partly Cloudy
10:51 PM 36.0 °F 29.6 °F 25.0 °F 64% 29.98 in 10.0 mi South 8.1 mph - N/A   Partly Cloudy
11:51 PM 36.0 °F 28.0 °F 25.0 °F 64% 29.97 in 10.0 mi South 11.5 mph - N/A   Partly Cloudy